Location: *
(18.5200°S, 46.4500°E)
Time: 20:14:24
(UTC+00:00)

CZ-4 R/B - Pass Details

Date: 19 July 2019
Orbit: 531 x 599 km, 97.8° (Epoch: 18 August)

Event Time Altitude Azimuth Distance (km) Brightness Sun altitude
Exits shadow 15:49:08 - 172° (S) 2,028 4.0 -17.4°
Reaches altitude 10° 15:49:25 10° 172° (S) 1,915 3.8 -17.5°
Maximum altitude 15:53:34 78° 258° (WSW) 609 1.5 -18.4°
Drops below altitude 10° 15:57:45 10° 344° (NNW) 1,923 4.5 -19.4°
Sets 15:59:55 0° 345° (NNW) 2,823 5.4 -19.9°
